Home   Weather   Arth   Past weeks

Flag for Switzerland Past Weather in Arth, Schwyz, Switzerland — Yesterday and Last 2 Weeks

Now
67 °F

Overcast.


Feels Like: 67 °F
Forecast: 52 / 59 °F
Wind: 1 mph from Southeast

Location: Altdorf

Current Time: Jul 27, 2017 at 9:00:25 pm

Latest Report: Jul 27, 2017 at 8:00 pm


Visibility: 13 mi

Pressure: 29.85 "Hg

Humidity: 86%

Dew Point: 63 °F

Location of ArthLocation

Past Weather in Arth — Graph

°F

Arth Temperature Yesterday

Maximum temperature yesterday: 66 °F (at 5:00 pm)
Minimum temperature yesterday: 54 °F (at 4:00 am)
Average temperature yesterday: 58 °F

High & Low Weather Summary for the Past Weeks

 TemperatureHumidityPressure
High84 °F (Jul 19, 3:00 pm)97% (Jul 26, 3:00 am)30.29 "Hg (Jul 26, 3:00 am)
Low52 °F (Jul 16, 6:00 am)42% (Jul 19, 4:00 pm)29.76 "Hg (Jul 21, 5:00 pm)
Average66 °F75%30.00 "Hg
* Reported Jul 12 7:00 pm — Jul 27 7:00 pm, Arth. Weather by CustomWeather, © 2017

Note: Actual official high and low records may vary slightly from our data, if they occured in-between our weather recording intervals... More about our weather records

Advertising

Arth Weather History for the Previous 24 Hours

Scroll right to see more
 ConditionsComfort  
Time TempWeatherWind HumidityBarometerVisibility
7:00 pm
Thu, Jul 27
69 °FMild.2 mph64%29.83 "HgN/A
6:00 pm69 °FMild.2 mph66%29.83 "HgN/A
5:00 pm69 °FOvercast.3 mph64%29.84 "Hg12 mi
4:00 pm71 °FMild.2 mph65%29.85 "HgN/A
3:00 pm67 °FMild.3 mph63%29.87 "HgN/A
2:00 pm66 °FOvercast.1 mph67%29.89 "Hg12 mi
1:00 pm63 °FMild.6 mph77%29.92 "HgN/A
12:00 pm63 °FMild.5 mph74%29.93 "HgN/A
11:00 am62 °FOvercast.2 mph71%29.96 "Hg6 mi
10:00 am60 °FCool.1 mph78%29.98 "HgN/A
9:00 am59 °FCool.1 mph83%29.96 "HgN/A
8:00 am58 °FOvercast.No wind91%29.95 "Hg16 mi
7:00 am57 °FCool.1 mph81%29.95 "HgN/A
6:00 am55 °FCool.2 mph86%29.96 "HgN/A
5:00 am55 °FPassing clouds.1 mph85%29.96 "Hg16 mi
4:00 am54 °FCool.2 mph84%29.97 "HgN/A
3:00 am52 °FCool.5 mph89%29.99 "HgN/A
2:00 am54 °FPassing clouds.3 mph86%30.00 "Hg16 mi
1:00 am53 °FCool.3 mph93%30.00 "HgN/A
12:00 am54 °FCool.3 mph91%30.00 "HgN/A
11:00 pm
Wed, Jul 26
55 °FPassing clouds.3 mph91%29.99 "Hg16 mi
10:00 pm54 °FCool.3 mph94%29.99 "HgN/A
9:00 pm56 °FCool.3 mph93%29.96 "HgN/A
Weather by CustomWeather, © 2017

See weather overviewHow to use our weather pages